CZ-2C R/B, 40287

Orbit data source: Space-Track

CZ-2C R/B, 40287 is space debris in SSO originally from a launch on Mon, 27 Oct 2014 UTC launched from the Jiuquan Satellite Launch Center, China (JSC). Debris objects in space refer to the collection of defunct objects orbiting the Earth. Examples of debris include non-operational satellites, rocket bodies, and fragments generated from explosions, collisions, or faulty payload assembly.

Loading next visibility...
CZ-2C R/B details
Identifier
40287, 2014-066B
Orbit
SSO
Last TLE update9 hours ago
Origin
Flag of CNCASC (CN / PRC)
ManufacturerCALT
MissionSpacecraft
Bus & MotorCZ-2 STAGE 2, Unknown motor
Mass~3,800 kg wet, ~3,800 kg dry
Launch date (UTC)
2014-10-27 (10 years ago)
Launch vehicleUnknown
Launch site
Jiuquan Satellite Launch Center, China (JSC)
Object type
Payload
Rocket body
Debris
Shape & HBRCyl, 8.4 m
Radar Cross Section26.048 m², Large (>1 m²)

Expand to show TLE details & history

TLE from 9 hours ago
0 CZ-2C R/B
1 40287U 14066B   24361.57878909  .00001682  00000-0  31015-3 0  9997
2 40287  97.7828  39.8661 0007818 199.6160 160.4745 14.66711983543514
Epoch: 2024-12-26T13:53Z
Definitive object data (Epoch: 2024-12-26T13:53:27.377Z)
Latitude-0.00005°
Longitude95.94587°
Altitude679.787 km
Speed7.514 km/s
True Right ascension02h 39m 27s
True Declination0° 00' 00"
Sunlit
Object was in full shadow at TLE epoch
Visualization TLE readout
Latitude-70.67836°
Longitude-106.49788°
Altitude694.635 km
Speed7.51 km/s
Apparent Right ascension11h 25m 19s
Apparent Declination-57° 15' 14"
Sunlit
Object is in daylight
Visualization observer readout
Local Sidereal Time22:36:40
Azimuth200.437° SSW
Elevation-70.954°
Doppler factor1
Orbital elements
Apogee altitude674.147 km
Perigee altitude663.129 km
Semi-major axis7,046.775 km
Eccentricity0.0007818
Inclination97.7828°
RAAN39.8661°
Arg. of periapsis199.616°
True anomaly160.50442°
Mean anomaly160.4745°
Eccentric anomaly160.48946°
Mean motion3.66908 °/min
BSTAR0.00031015
Orbital period98.12 mins
Loading maneuver chart data...
Loading historical data...
Loading historical data...
Loading historical data...
Loading historical data...
Loading historical data...
Loading historical data...
Loading historical data...
Other satellites on launch #66 in the year 2014 (2014-10-27 UTC)

CZ-2C R/B Visibility forecast

Observer location: undefined°, undefined

Span
Click to sort rows by Start time (UTC) header in descending order
Start Az.
Max El. time (UTC)
Max El. Az.
Max El.
End time (UTC)
End Az.
4 mins2024-12-27 01:31:23.800Z92.647° ESE2024-12-27 01:33:23.800Z65.303° ENE14.262°2024-12-27 01:35:23.800Z37.399° NE
7 mins2024-12-27 03:07:23.800Z188.469° SSW2024-12-27 03:10:23.800Z273.64° WNW39.6°2024-12-27 03:14:23.800Z338.097° N
7 mins2024-12-27 15:02:23.800Z38.843° NE2024-12-27 15:05:23.800Z94.701° ESE29.448°2024-12-27 15:09:23.800Z161.428° S
5 mins2024-12-27 16:40:23.800Z327.527° NNW2024-12-27 16:42:23.800Z293.208° NW20.728°2024-12-27 16:45:23.800Z246.999° WSW
|